Powrót do katalogu

OAO 1

AktywnyNaukaLEO
NORAD 2142·PAYLOAD·🇺🇸 United States

Wystrzelony Apr 8, 1966 z Cape Canaveral Space Force Station

Loading…

Następne Przeloty (najbliższe 24 godziny)

TLE

ŚwieżeSource: Space-Track

Epoka: Sep 14, 2026, 02:57 UTC

1 02142U 66031A   26257.12336305  .00000032  00000-0  17809-4 0  9994
2 02142  35.0448 204.0524 0007468 272.7062  87.2770 14.34708861163860

Śledź OAO 1 w czasie rzeczywistym z AllMySat

Download on the App Store